Dansville, NY

7:57 AM EST on February 19, 2017 (GMT -0500)
Dansville Municipal

Weather History for KDSV - March, 2012

Change the Weather History Date:

Thursday, March 1, 2012

  Actual Average Record
Temperature  
Mean Temperature 41 °F -  
Max Temperature 45 °F 39 °F 70 °F (1976)
Min Temperature 37 °F 18 °F -5 °F (1980)
Degree Days  
Heating Degree Days 24    
Moisture  
Dew Point 33 °F    
Average Humidity 75    
Maximum Humidity 93    
Minimum Humidity 65    
Precipitation  
Precipitation 0.07 in - - ()
Sea Level Pressure  
Sea Level Pressure 29.73 in    
Wind  
Wind Speed 6 mph (West)    
Max Wind Speed 14 mph    
Max Gust Speed 25 mph    
Visibility 10 miles    
Events Rain    
Averages and records for this station are not official NWS values.
T = Trace of Precipitation, MM = Missing Value Source: NWS Daily Summary

Daily Weather History Graph

Daily Weather History Graph

Search for Another Location

Airport or City:

Trip Planner

Search our weather history database for the weather conditions in past years. The results will help you decide how hot, cold, wet, or windy it might be!

Date:

Astronomy

Mar. 01, 2012 Rise Set
Actual Time 6:45 AM EST 6:01 PM EST
Civil Twilight 6:17 AM EST 6:29 PM EST
Nautical Twilight 5:44 AM EST 7:02 PM EST
Astronomical Twilight 5:12 AM EST 7:34 PM EST
Moon 11:13 AM EST (3/1) 1:48 AM EST (3/1)
Length of Visible Light 12h 12m
Length of Day
11h 15m
First Quarter, 56% of the Moon is Illuminated
Mar 1
First Quarter
Mar 8
Full
Mar 14
Last Quarter
Mar 22
New
Mar 30
First Quarter

Hourly Weather History & Observations

Time (EST) Temp. Windchill Dew Point Humidity Pressure Visibility Wind Dir Wind Speed Gust Speed Precip Events Conditions
12:54 AM 45.0 °F 42.6 °F 39.9 °F 82% 29.59 in 10.0 mi SE 4.6 mph - 0.01 in   Overcast
1:54 AM 43.0 °F 37.2 °F 39.0 °F 86% 29.59 in 10.0 mi SSE 10.4 mph 17.3 mph 0.00 in Rain Light Rain
3:54 AM 42.1 °F - 39.0 °F 89% 29.60 in 10.0 mi Calm Calm - 0.00 in Rain Light Rain
4:54 AM 42.1 °F 38.4 °F 39.0 °F 89% 29.56 in 10.0 mi South 5.8 mph - 0.02 in   Overcast
5:54 AM 42.1 °F 37.7 °F 39.0 °F 89% 29.58 in 10.0 mi ESE 6.9 mph - 0.00 in Rain Light Rain
6:54 AM 41.0 °F 37.1 °F 39.0 °F 93% 29.59 in 10.0 mi SE 5.8 mph - 0.02 in   Overcast
7:13 AM 41.0 °F 36.4 °F 39.2 °F 93% 29.57 in 7.0 mi WNW 6.9 mph - 0.01 in Rain Light Rain
7:32 AM 42.8 °F 38.6 °F 35.6 °F 76% 29.59 in 10.0 mi Variable 6.9 mph - 0.02 in Rain Light Rain
7:54 AM 41.0 °F 39.0 °F 35.1 °F 79% 29.65 in 10.0 mi North 3.5 mph - 0.02 in   Overcast
8:03 AM 41.0 °F 35.8 °F 33.8 °F 76% 29.61 in 10.0 mi NNW 8.1 mph - N/A   Overcast
8:49 AM 41.0 °F 36.4 °F 33.8 °F 76% 29.63 in 10.0 mi Variable 6.9 mph - N/A   Overcast
8:54 AM 41.0 °F 39.0 °F 33.1 °F 73% 29.67 in 10.0 mi Variable 3.5 mph - N/A   Overcast
9:54 AM 42.1 °F 38.4 °F 33.1 °F 70% 29.68 in 10.0 mi Variable 5.8 mph - N/A   Overcast
10:18 AM 42.8 °F 36.6 °F 33.8 °F 70% 29.65 in 10.0 mi West 11.5 mph 17.3 mph N/A   Overcast
10:27 AM 41.0 °F 35.2 °F 32.0 °F 70% 29.66 in 10.0 mi West 9.2 mph 25.3 mph N/A   Overcast
10:54 AM 42.1 °F 36.1 °F 30.9 °F 65% 29.71 in 10.0 mi WNW 10.4 mph 21.9 mph N/A   Overcast
11:22 AM 41.0 °F 33.5 °F 30.2 °F 65% 29.69 in 10.0 mi WNW 13.8 mph 24.2 mph N/A   Overcast
11:54 AM 39.9 °F 34.5 °F 30.0 °F 68% 29.74 in 10.0 mi WNW 8.1 mph 16.1 mph N/A   Overcast
1:32 PM 41.0 °F 37.1 °F 30.2 °F 65% 29.71 in 10.0 mi WNW 5.8 mph - N/A   Overcast
1:54 PM 42.1 °F 37.1 °F 30.9 °F 65% 29.75 in 10.0 mi WNW 8.1 mph 17.3 mph N/A   Overcast
2:12 PM 41.0 °F 35.8 °F 30.2 °F 65% 29.73 in 10.0 mi WNW 8.1 mph 16.1 mph N/A   Overcast
2:54 PM 41.0 °F 36.4 °F 30.0 °F 65% 29.78 in 10.0 mi Variable 6.9 mph 16.1 mph N/A   Overcast
3:19 PM 41.0 °F 36.4 °F 30.2 °F 65% 29.76 in 10.0 mi West 6.9 mph - N/A   Overcast
3:27 PM 41.0 °F 37.1 °F 30.2 °F 65% 29.76 in 10.0 mi Variable 5.8 mph - N/A   Overcast
3:51 PM 41.0 °F 37.1 °F 30.2 °F 65% 29.77 in 10.0 mi West 5.8 mph - N/A   Overcast
3:54 PM 41.0 °F 38.0 °F 30.9 °F 67% 29.81 in 10.0 mi WSW 4.6 mph - N/A   Overcast
4:54 PM 39.9 °F 35.8 °F 30.9 °F 70% 29.84 in 10.0 mi WNW 5.8 mph - N/A   Overcast
5:54 PM 39.0 °F 35.7 °F 30.9 °F 73% 29.86 in 10.0 mi West 4.6 mph - 0.00 in   Overcast
6:54 PM 39.0 °F 34.0 °F 30.0 °F 70% 29.89 in 10.0 mi Variable 6.9 mph - N/A   Overcast
7:54 PM 37.9 °F - 30.9 °F 76% 29.90 in 10.0 mi Calm Calm - N/A   Overcast
8:38 PM 37.4 °F - 30.2 °F 75% 29.88 in 10.0 mi Calm Calm - N/A   Overcast
8:54 PM 37.9 °F - 30.9 °F 76% 29.92 in 10.0 mi Calm Calm - N/A   Overcast
9:54 PM 37.9 °F 34.4 °F 32.0 °F 79% 29.94 in 10.0 mi ESE 4.6 mph - N/A   Overcast
10:54 PM 37.9 °F - 32.0 °F 79% 29.95 in 10.0 mi Calm Calm - N/A   Overcast
11:54 PM 37.9 °F - 32.0 °F 79% 29.96 in 10.0 mi Calm Calm - N/A   Overcast